User: anonymous   Login
Location: Unspecified
(0.0000°N, 0.0000°E)
Time: 07:15:12
(UTC+00:00)
Language:

NODES 2 - Orbit

View from above orbital plane
View from above orbital plane
View from above satellite
View from above satellite

Ground track
Ground track

The orbit data is extracted from the following two-line orbital elements,

1 41478U 98067HY  17177.84261132 +.00062474 +00000-0 +28637-3 0  9996
2 41478 051.6314 313.5472 0000911 268.2676 091.8223 15.83074783063593
Epoch (UTC): 26 June 2017 20:13:21
Eccentricity: 0.0000911
inclination: 51.6314°
perigee height: 321 km
apogee height: 322 km
right ascension of ascending node: 313.5472°
argument of perigee: 268.2676°
revolutions per day: 15.83074783
mean anomaly at epoch: 91.8223°
orbit number at epoch: 6359

The dashed part of the orbit path shows where the satellite is in the earth's shadow,  

DLR